This demonstration page uses our WeatherBlox Daily Observations layout. Learn more.

38.88101, -77.10428

Hourly Observations for August 22, 2017

Temp ( °F °C ) Dew Point ( °F °C ) Humidity (%) Winds ( mph kmh ) Pressure ( in mb ) Visibility ( mi km ) Precip ( " mm )
12:52 am 00:52 Mostly Cloudy 76 24.4 74 23.3 94 94 SE 5 7 30.11 1020 9 14.48406 0 0
1:52 am 01:52 Mostly Cloudy 76 24.4 74 23.3 94 94 S 6 9 30.09 1019 10 16.0934 0 0
2:52 am 02:52 Mostly Cloudy 76 24.4 74 23.3 94 94 SSW 7 11 30.08 1019 10 16.0934 0 0
3:52 am 03:52 Mostly Cloudy 75 23.9 74 23.3 96 96 SW 3 6 30.06 1018 8 12.87472 0 0
4:52 am 04:52 Mostly Cloudy 76 24.4 75 23.9 97 97 SSW 9 15 30.05 1018 9 14.48406 0 0
5:52 am 05:52 Mostly Cloudy 76 24.4 74 23.3 94 94 SSW 7 11 30.05 1018 9 14.48406 0 0
6:52 am 06:52 Partly Cloudy 76 24.4 74 23.3 94 94 SSW 3 6 30.05 1018 8 12.87472 0 0
7:52 am 07:52 Partly Cloudy 77 25 75 23.9 94 94 S 6 9 30.06 1018 9 14.48406 0 0
8:52 am 08:52 Partly Cloudy 79 26.1 75 23.9 88 88 S 10 17 30.04 1017 10 16.0934 0 0
9:52 am 09:52 Partly Cloudy 82 27.8 76 24.4 82 82 S 9 15 30.03 1017 10 16.0934 0 0
10:52 am 10:52 Partly Cloudy 84 28.9 76 24.4 77 77 S 12 19 30.01 1016 10 16.0934 0 0
11:52 am 11:52 Mostly Sunny 85 29.4 77 25 77 77 S 12 19 30 1016 10 16.0934 0 0
12:52 pm 12:52 Mostly Sunny 88 31.1 77 25 70 70 SSE 13 20 29.98 1015 10 16.0934 0 0
1:52 pm 13:52 Mostly Sunny 90 32.2 76 24.4 63 63 S 14 22 29.96 1014 10 16.0934 0 0
2:52 pm 14:52 Mostly Sunny 91 32.8 74 23.3 57 57 S 18 30 29.92 1013 10 16.0934 0 0
3:52 pm 15:52 Partly Cloudy 92 33.3 73 22.8 54 54 S 22 35 29.88 1012 10 16.0934 0 0
4:52 pm 16:52 Mostly Sunny 92 33.3 72 22.2 52 52 S 18 30 29.85 1011 10 16.0934 0 0
5:52 pm 17:52 Mostly Sunny 91 32.8 71 21.7 52 52 S 13 20 29.84 1011 10 16.0934 0 0
6:52 pm 18:52 Partly Cloudy 89 31.7 75 23.9 63 63 S 15 24 29.83 1010 10 16.0934 0 0
7:52 pm 19:52 Partly Cloudy 87 30.6 76 24.4 70 70 S 14 22 29.83 1010 10 16.0934 0 0
8:52 pm 20:52 Mostly Clear 86 30 73 22.8 65 65 S 14 22 29.81 1010 10 16.0934 0 0
9:52 pm 21:52 Mostly Cloudy 85 29.4 73 22.8 68 68 SSW 15 24 29.81 1010 10 16.0934 0 0
10:52 pm 22:52 Mostly Cloudy 84 28.9 73 22.8 70 70 SSW 14 22 29.81 1010 10 16.0934 0 0
11:52 pm 23:52 Mostly Cloudy 83 28.3 73 22.8 72 72 SSW 12 19 29.81 1010 10 16.0934 0 0

Powered by AerisWeather